TimeCDT,TemperatureF,Dew PointF,Humidity,Sea Level PressureIn,VisibilityMPH,Wind Direction,Wind SpeedMPH,Gust SpeedMPH,PrecipitationIn,Events,Conditions,WindDirDegrees,DateUTC
12:54 AM,44.1,41.0,89,29.79,10.0,Calm,Calm,-,0.00,Rain,Light Rain,0,2013-10-18 05:54:00
1:54 AM,44.1,42.1,93,29.78,7.0,Calm,Calm,-,0.02,Rain,Light Rain,0,2013-10-18 06:54:00
2:54 AM,43.0,42.1,97,29.77,7.0,ESE,3.5,-,0.00,,Overcast,110,2013-10-18 07:54:00
3:54 AM,44.1,42.1,93,29.76,9.0,Calm,Calm,-,0.00,,Overcast,0,2013-10-18 08:54:00
4:26 AM,44.6,41.0,87,29.73,10.0,Calm,Calm,-,N/A,,Overcast,0,2013-10-18 09:26:00
4:54 AM,44.1,41.0,89,29.76,9.0,WSW,9.2,-,N/A,,Overcast,240,2013-10-18 09:54:00
5:07 AM,44.6,41.0,87,29.73,9.0,SW,6.9,-,N/A,,Overcast,220,2013-10-18 10:07:00
5:16 AM,44.6,41.0,87,29.73,9.0,SSW,4.6,-,N/A,,Overcast,210,2013-10-18 10:16:00
5:54 AM,44.1,42.1,93,29.76,8.0,Calm,Calm,-,N/A,,Overcast,0,2013-10-18 10:54:00
6:16 AM,44.6,42.8,93,29.74,7.0,SW,4.6,-,N/A,,Overcast,230,2013-10-18 11:16:00
6:33 AM,44.6,42.8,93,29.74,7.0,WSW,4.6,-,N/A,,Overcast,250,2013-10-18 11:33:00
6:54 AM,45.0,42.1,90,29.76,5.0,WSW,5.8,-,N/A,,Overcast,240,2013-10-18 11:54:00
7:34 AM,44.6,42.8,93,29.75,5.0,West,3.5,-,N/A,,Overcast,270,2013-10-18 12:34:00
7:54 AM,45.0,43.0,93,29.78,4.0,NW,6.9,-,0.00,Rain,Light Rain,310,2013-10-18 12:54:00
8:04 AM,44.6,42.8,93,29.76,4.0,NW,6.9,-,0.00,Rain,Light Rain,320,2013-10-18 13:04:00
8:25 AM,44.6,42.8,93,29.76,5.0,NNW,4.6,-,0.00,,Overcast,330,2013-10-18 13:25:00
8:33 AM,44.6,42.8,93,29.76,5.0,NNW,3.5,-,0.00,Rain,Light Rain,330,2013-10-18 13:33:00
8:46 AM,44.6,42.8,93,29.77,5.0,WNW,4.6,-,0.00,,Overcast,300,2013-10-18 13:46:00
8:54 AM,44.1,42.1,93,29.81,5.0,WNW,5.8,-,0.00,,Overcast,300,2013-10-18 13:54:00
9:54 AM,44.1,42.1,93,29.83,6.0,WNW,8.1,-,0.01,Rain,Light Rain,290,2013-10-18 14:54:00
10:54 AM,45.0,43.0,93,29.83,7.0,NW,10.4,-,0.04,Rain,Light Rain,310,2013-10-18 15:54:00
11:02 AM,46.4,42.8,87,29.80,6.0,NW,6.9,-,0.00,Rain,Light Rain,310,2013-10-18 16:02:00
11:17 AM,46.4,42.8,87,29.80,10.0,WNW,9.2,-,0.01,Rain,Light Rain,300,2013-10-18 16:17:00
11:26 AM,44.6,42.8,93,29.81,10.0,WNW,8.1,-,0.01,Rain,Light Rain,300,2013-10-18 16:26:00
11:54 AM,46.0,41.0,83,29.84,10.0,NW,9.2,-,0.01,,Overcast,320,2013-10-18 16:54:00
12:03 PM,46.4,41.0,81,29.81,10.0,WNW,9.2,-,N/A,,Overcast,300,2013-10-18 17:03:00
12:13 PM,46.4,41.0,81,29.81,10.0,WNW,12.7,18.4,N/A,,Overcast,300,2013-10-18 17:13:00
12:54 PM,44.1,39.9,85,29.85,7.0,WNW,12.7,-,N/A,,Overcast,300,2013-10-18 17:54:00
1:32 PM,44.6,39.2,81,29.82,10.0,NW,12.7,23.0,0.00,,Overcast,310,2013-10-18 18:32:00
1:54 PM,44.1,37.9,79,29.86,10.0,NW,15.0,23.0,0.00,Rain,Light Rain,310,2013-10-18 18:54:00
2:54 PM,44.1,37.0,76,29.87,10.0,NW,9.2,17.3,0.00,,Overcast,320,2013-10-18 19:54:00
3:54 PM,42.1,37.9,85,29.90,5.0,NW,5.8,-,0.01,Rain,Light Rain,310,2013-10-18 20:54:00
4:08 PM,42.8,37.4,81,29.86,10.0,NNW,8.1,-,0.00,Rain,Light Rain,330,2013-10-18 21:08:00
4:54 PM,43.0,36.0,76,29.89,10.0,NW,11.5,-,0.00,,Overcast,310,2013-10-18 21:54:00
5:54 PM,42.1,36.0,79,29.91,10.0,NW,5.8,-,N/A,,Mostly Cloudy,320,2013-10-18 22:54:00
6:54 PM,39.0,36.0,89,29.91,10.0,West,3.5,-,N/A,,Clear,270,2013-10-18 23:54:00
7:54 PM,39.0,36.0,89,29.92,10.0,Calm,Calm,-,N/A,,Clear,0,2013-10-19 00:54:00
8:54 PM,36.0,34.0,93,29.93,10.0,Calm,Calm,-,N/A,,Clear,0,2013-10-19 01:54:00
9:54 PM,35.1,32.0,89,29.92,10.0,Calm,Calm,-,N/A,,Clear,0,2013-10-19 02:54:00
10:54 PM,34.0,32.0,92,29.90,10.0,Calm,Calm,-,N/A,,Clear,0,2013-10-19 03:54:00
11:54 PM,35.1,33.1,92,29.88,10.0,Calm,Calm,-,N/A,,Clear,0,2013-10-19 04:54:00